Location: Unspecified
(0.0000°N, 0.0000°E)
Time: 11:27:35
(UTC+00:00)

A-11 Canister half - Pass Details

Date: 20 November 2019
Orbit: 1526 x 1683 km, 47.3° (Epoch: 07 December)

Event Time Altitude Azimuth Distance (km) Brightness Sun altitude
Rises 05:47:29 0° 184° (S) 4,881 11.8 0.5°
Reaches altitude 10° 05:54:04 10° 154° (SSE) 3,922 11.9 2.0°
Maximum altitude 05:57:03 12° 136° (SE) 3,807 12.4 2.7°
Drops below altitude 10° 06:00:02 10° 118° (ESE) 3,938 13.5 3.4°
Sets 06:06:36 0° 88° (E) 4,929 13.2 5.0°
